Starlink 4512

operational
NORAD ID: 53398 Int'l Des: 2022-097 Owner: SPXS Country: US Constellation: starlink
LEOCIRCULAR

Über Starlink 4512

Beschreibung wird geladen...

Live-Position

3D-Globus wird geladen...

Nächste Überflüge

Höhenverlauf

Altitude vs Time

uPlot chart will show altitude changes over time

Zweizeiliger Elementsatz

1 53398U 22097L 25302.52392619 .00000757 00000-0 65630-4 0 9990
2 53398 53.2193 352.9484 0001466 90.3920 269.7240 15.08842408178712
Epoch: 29. Okt. 2025 • Age: 11 hours

Aktueller Status

Höhe 541.2 km
Geschwindigkeit 7.59 km/s
Subsatellitenpunkt -3.02°S, 45.22°W
Startdatum 10. Aug. 2022
Alter 3.2 years
Typ internet

Technische Details

Klassifizierung Payload
Masse 297.00 kg
Trockenmasse 275.00 kg
Gesamtmasse 297.00 kg
Länge 0.20 m
Durchmesser 2.80 m
Spannweite 9.00 m
Form Box + pan
Hersteller SPXS
Bus-Typ Starlink
Phasenstatus In Orbit
Besitzer/Staat SPXS/US

Große Konstellationen

Loading constellations...